Weather History for Marietta, GA

Change the Weather History Date:

Sunday, October 28, 2012

  Actual Average Record
Temperature  
Mean Temperature 50 °F -  
Max Temperature 53 °F 68 °F 80 °F (1996)
Min Temperature 46 °F 49 °F 30 °F (2001)
Degree Days  
Heating Degree Days 15    
Moisture  
Dew Point 43 °F    
Average Humidity 77    
Maximum Humidity 87    
Minimum Humidity 66    
Precipitation  
Precipitation 0.00 in - - ()
Sea Level Pressure  
Sea Level Pressure 29.83 in    
Wind  
Wind Speed 11 mph (NW)    
Max Wind Speed 24 mph    
Max Gust Speed 37 mph    
Visibility 10 miles    
Events Rain    
Averages and records for this station are not official NWS values.
T = Trace of Precipitation, MM = Missing Value Source: NWS Daily Summary

Daily Weather History Graph

Daily Weather History Graph

Search for Another Location

Airport:

Trip Planner

Search our weather history database for the weather conditions in past years. The results will help you decide how hot, cold, wet, or windy it might be!

Date:

Astronomy

Oct. 28, 2012 Rise Set
Actual Time 7:54 AM EDT 6:48 PM EDT
Civil Twilight 7:28 AM EDT 7:14 PM EDT
Nautical Twilight 6:59 AM EDT 7:43 PM EDT
Astronomical Twilight 6:30 AM EDT 8:12 PM EDT
Moon 6:05 PM EDT (10/28) 6:47 AM EDT (10/28)
Length of Visible Light 11h 45m
Length of Day
10h 54m
Waxing Gibbous, 99% of the Moon is Illuminated
Oct 28
Waxing Gibbous
Oct 29
Full
Nov 6
Last Quarter
Nov 13
New
Nov 20
First Quarter

Hourly Weather History & Observations

Time (EDT) Temp. Dew Point Humidity Pressure Visibility Wind Dir Wind Speed Gust Speed Precip Events Conditions
12:55 AM 51.3 °F 45.5 °F 81% 29.83 in 10.0 mi NW 8.1 mph 18.4 mph N/A   Overcast
1:00 AM 51.8 °F 44.6 °F 76% 29.83 in 10.0 mi NW 12.7 mph - N/A   Overcast
1:08 AM 51.8 °F 46.4 °F 82% 29.83 in 10.0 mi NW 10.4 mph - N/A   Overcast
1:55 AM 50.2 °F 45.3 °F 83% 29.81 in 10.0 mi NW 5.8 mph - N/A   Partly Cloudy
2:55 AM 49.8 °F 45.3 °F 84% 29.80 in 10.0 mi WNW 10.4 mph - N/A   Mostly Cloudy
3:17 AM 50.0 °F 44.6 °F 82% 29.80 in 10.0 mi WNW 6.9 mph - N/A   Mostly Cloudy
3:31 AM 50.0 °F 44.6 °F 82% 29.80 in 10.0 mi WNW 9.2 mph - N/A   Overcast
3:55 AM 49.8 °F 45.3 °F 84% 29.80 in 10.0 mi WNW 8.1 mph - N/A   Overcast
4:14 AM 50.0 °F 44.6 °F 82% 29.79 in 10.0 mi WNW 6.9 mph - N/A   Overcast
4:38 AM 50.0 °F 44.6 °F 82% 29.79 in 10.0 mi NW 5.8 mph - N/A   Mostly Cloudy
4:40 AM 50.0 °F 44.6 °F 82% 29.80 in 10.0 mi NW 8.1 mph - N/A   Overcast
4:41 AM 50.0 °F 44.6 °F 82% 29.80 in 10.0 mi NW 8.1 mph - N/A   Overcast
4:49 AM 50.0 °F 44.6 °F 82% 29.79 in 10.0 mi NW 6.9 mph - N/A   Overcast
4:55 AM 50.0 °F 45.5 °F 85% 29.79 in 10.0 mi NW 9.2 mph - N/A   Overcast
5:30 AM 50.0 °F 44.6 °F 82% 29.80 in 10.0 mi WNW 6.9 mph - N/A   Mostly Cloudy
5:47 AM 50.0 °F 44.6 °F 82% 29.79 in 10.0 mi NW 9.2 mph - N/A   Overcast
5:55 AM 50.2 °F 45.1 °F 83% 29.80 in 10.0 mi NW 6.9 mph - N/A   Overcast
6:24 AM 50.0 °F 44.6 °F 82% 29.80 in 10.0 mi WNW 10.4 mph - N/A   Overcast
6:55 AM 50.4 °F 45.0 °F 82% 29.80 in 10.0 mi WNW 11.5 mph - N/A   Overcast
7:11 AM 50.0 °F 44.6 °F 82% 29.80 in 10.0 mi WNW 10.4 mph - N/A   Overcast
7:45 AM 50.0 °F 44.6 °F 82% 29.81 in 10.0 mi WNW 12.7 mph - N/A   Overcast
7:55 AM 50.5 °F 44.6 °F 80% 29.81 in 10.0 mi NW 12.7 mph - N/A   Overcast
8:31 AM 50.0 °F 44.6 °F 82% 29.82 in 10.0 mi NW 10.4 mph - N/A   Overcast
8:55 AM 50.5 °F 44.4 °F 80% 29.81 in 7.0 mi NNW 6.9 mph - N/A Rain Light Rain
9:23 AM 50.0 °F 46.4 °F 87% 29.83 in 10.0 mi NW 6.9 mph - N/A   Overcast
9:55 AM 50.5 °F 45.7 °F 83% 29.83 in 10.0 mi WNW 11.5 mph - 0.00 in   Overcast
10:55 AM 50.4 °F 45.0 °F 82% 29.84 in 10.0 mi NW 10.4 mph - N/A   Overcast
11:12 AM 50.0 °F 44.6 °F 82% 29.84 in 10.0 mi WNW 10.4 mph - N/A   Overcast
11:53 AM 50.0 °F 44.6 °F 82% 29.84 in 10.0 mi NW 13.8 mph - N/A   Overcast
11:55 AM 50.5 °F 44.6 °F 80% 29.84 in 10.0 mi NW 13.8 mph - N/A   Overcast
12:55 PM 51.6 °F 44.1 °F 75% 29.84 in 10.0 mi NW 17.3 mph 28.8 mph N/A   Overcast
1:00 PM 51.8 °F 44.6 °F 76% 29.83 in 10.0 mi WNW 17.3 mph 28.8 mph N/A   Overcast
1:55 PM 52.3 °F 43.3 °F 71% 29.82 in 10.0 mi NW 16.1 mph 25.3 mph N/A   Overcast
2:41 PM 53.6 °F 42.8 °F 67% 29.81 in 10.0 mi NW 18.4 mph 29.9 mph N/A   Overcast
2:55 PM 53.1 °F 42.4 °F 67% 29.82 in 10.0 mi NW 20.7 mph 26.5 mph N/A   Overcast
3:55 PM 52.7 °F 41.9 °F 67% 29.83 in 10.0 mi NW 18.4 mph 35.7 mph N/A   Overcast
4:46 PM 51.8 °F 42.8 °F 71% 29.83 in 10.0 mi NW 15.0 mph 24.2 mph N/A   Overcast
4:52 PM 51.8 °F 42.8 °F 71% 29.83 in 10.0 mi NW 16.1 mph 28.8 mph N/A   Overcast
4:55 PM 51.3 °F 41.9 °F 70% 29.83 in 10.0 mi NW 21.9 mph 28.8 mph N/A   Overcast
5:04 PM 50.0 °F 41.0 °F 71% 29.84 in 10.0 mi NNW 19.6 mph 29.9 mph N/A   Overcast
5:29 PM 50.0 °F 41.0 °F 71% 29.84 in 10.0 mi NW 24.2 mph 31.1 mph N/A   Overcast
5:55 PM 49.6 °F 40.3 °F 70% 29.85 in 10.0 mi NW 19.6 mph 32.2 mph N/A   Overcast
6:55 PM 48.6 °F 39.2 °F 70% 29.86 in 10.0 mi NW 19.6 mph 32.2 mph N/A   Overcast
7:55 PM 48.2 °F 38.7 °F 70% 29.89 in 10.0 mi NW 16.1 mph 36.8 mph N/A   Overcast
8:55 PM 48.0 °F 37.8 °F 68% 29.89 in 10.0 mi NW 13.8 mph 29.9 mph N/A   Overcast
9:55 PM 47.7 °F 37.0 °F 67% 29.89 in 10.0 mi NW 19.6 mph 31.1 mph N/A   Overcast
10:55 PM 47.5 °F 37.2 °F 68% 29.90 in 10.0 mi NW 23.0 mph 35.7 mph N/A   Overcast
11:55 PM 46.8 °F 36.0 °F 66% 29.91 in 10.0 mi NW 16.1 mph 33.4 mph N/A   Mostly Cloudy